EW9204 Weather Reports


time (UTC)temp
C
wind
direction
speed
KPH
gust
KPH
rain 1hr
cm
rain 24hr
cm
rain mn
cm
humidity
%
barometer
mb
20260510220516 17 0 0.0 4.8 0.00 0.25 0.03 84 1013.9
20260510220031 17 265 0.0 3.2 0.00 0.25 0.03 87 1013.9
20260510215515 17 243 0.0 3.2 0.00 0.51 0.03 89 1014.0
20260510215015 17 0 0.0 3.2 0.00 0.51 0.03 89 1014.0
20260510214536 17 165 0.0 3.2 0.00 0.51 0.03 89 1013.9
20260510214015 17 165 0.0 3.2 0.00 0.51 0.03 89 1013.8
20260510213520 17 0 0.0 4.8 0.00 0.51 0.03 88 1013.8
20260510213038 17 146 1.6 4.8 0.00 0.51 0.03 88 1013.8
20260510212516 17 178 0.0 3.2 0.00 0.51 0.03 88 1013.7
20260510212013 17 221 0.0 3.2 0.00 0.51 0.03 87 1013.6
20260510211530 17 0 0.0 3.2 0.00 0.51 0.03 88 1013.5
20260510211015 17 334 0.0 1.6 0.00 0.51 0.03 87 1013.4
20260510210513 18 0 0.0 3.2 0.00 0.51 0.03 87 1013.4
20260510210030 18 0 0.0 3.2 0.00 0.51 0.03 87 1013.4
20260510205514 18 119 0.0 3.2 0.00 0.58 0.03 86 1013.3
20260510205036 18 34 0.0 3.2 0.00 0.58 0.03 86 1013.3
20260510204544 18 0 0.0 3.2 0.00 0.58 0.03 85 1013.3
20260510204014 18 137 0.0 3.2 0.00 0.58 0.03 84 1013.3
20260510203515 18 0 0.0 4.8 0.00 0.58 0.03 82 1013.4
20260510203035 18 158 1.6 6.4 0.00 0.58 0.03 81 1013.3
20260510202515 18 193 1.6 6.4 0.00 0.58 0.03 80 1013.3
20260510202016 18 0 1.6 8.0 0.00 0.58 0.03 82 1013.2
20260510201531 18 221 1.6 9.7 0.00 0.58 0.03 82 1013.3
20260510201018 18 178 3.2 9.7 0.00 0.58 0.03 81 1013.3
20260510200516 18 26 3.2 9.7 0.00 0.58 0.03 81 1013.4
20260510200032 18 218 4.8 9.7 0.03 0.58 0.03 81 1013.3
20260510195515 18 205 1.6 11.3 0.03 0.71 0.03 83 1013.3
20260510195015 18 168 0.0 11.3 0.03 0.71 0.03 83 1013.3
20260510194530 17 170 4.8 11.3 0.03 0.71 0.03 82 1013.3
20260510194015 17 202 1.6 12.9 0.03 0.71 0.03 84 1013.3
20260510193516 17 178 3.2 12.9 0.03 0.71 0.03 83 1013.4
20260510193031 17 165 4.8 12.9 0.03 0.71 0.03 84 1013.3
20260510192514 17 265 1.6 9.7 0.03 0.71 0.03 85 1013.3
20260510192015 17 168 1.6 9.7 0.03 0.71 0.03 84 1013.6
20260510191532 18 126 4.8 9.7 0.03 0.71 0.03 83 1013.7
20260510191013 18 9 3.2 11.3 0.03 0.71 0.03 83 1013.7
20260510190515 18 205 3.2 11.3 0.03 0.71 0.03 80 1013.6
20260510190037 18 70 1.6 8.0 0.00 0.69 0.00 78 1013.9
20260510185513 19 9 1.6 16.1 0.00 1.47 0.00 77 1013.8
20260510185013 19 153 4.8 16.1 0.00 1.47 0.00 76 1013.9
20260510184534 19 223 0.0 14.5 0.00 1.47 0.00 74 1013.9
20260510184016 19 319 3.2 14.5 0.00 1.47 0.00 73 1013.9
20260510183512 19 167 4.8 14.5 0.00 1.47 0.00 73 1013.9
20260510183037 20 186 1.6 6.4 0.00 1.47 0.00 73 1013.9
20260510182515 19 9 1.6 8.0 0.00 1.47 0.00 73 1013.9
20260510182016 19 236 3.2 9.7 0.00 1.47 0.00 76 1013.9
20260510181543 19 187 3.2 9.7 0.00 1.47 0.00 75 1013.9
20260510181015 18 209 1.6 6.4 0.00 1.47 0.00 78 1013.9
20260510180515 18 232 1.6 8.0 0.00 1.47 0.00 77 1013.9
20260510180033 18 61 1.6 12.9 0.00 1.47 0.00 78 1013.9
20260510175513 18 205 3.2 12.9 0.00 1.47 0.00 77 1013.9
20260510175013 18 175 4.8 12.9 0.00 1.47 0.00 76 1013.9
20260510174535 18 207 3.2 12.9 0.00 1.47 0.00 80 1013.9
20260510174019 18 196 6.4 12.9 0.00 1.47 0.00 79 1013.9
20260510173516 17 166 3.2 11.3 0.00 1.47 0.00 80 1013.8
20260510173031 17 202 4.8 11.3 0.00 1.47 0.00 83 1013.8
20260510172517 17 245 4.8 11.3 0.00 1.47 0.00 85 1014.0
20260510172016 16 182 4.8 14.5 0.00 1.47 0.00 83 1013.9
20260510171530 16 282 6.4 14.5 0.00 1.47 0.00 85 1013.8
20260510171015 16 178 4.8 12.9 0.00 1.47 0.00 86 1013.8
20260510170516 16 265 3.2 9.7 0.00 1.47 0.00 87 1013.9
20260510170030 15 160 3.2 9.7 0.00 1.47 0.00 86 1013.9
20260510165514 15 221 3.2 12.9 0.00 1.47 0.00 88 1014.1
20260510165017 15 223 3.2 12.9 0.00 1.47 0.00 88 1014.2
20260510164537 15 303 4.8 12.9 0.00 1.47 0.00 90 1014.1
20260510164013 15 153 3.2 9.7 0.00 1.47 0.00 91 1014.1
20260510163516 14 108 1.6 9.7 0.00 1.47 0.00 92 1014.0
20260510163030 13 137 1.6 9.7 0.00 1.47 0.00 93 1014.1
20260510162515 13 113 1.6 8.0 0.00 1.47 0.00 93 1014.3
20260510162013 13 219 1.6 9.7 0.00 1.47 0.00 94 1014.2
20260510161529 13 38 1.6 9.7 0.00 1.47 0.00 94 1014.1
20260510161013 13 115 3.2 9.7 0.00 1.47 0.00 94 1014.2
20260510160514 13 178 1.6 9.7 0.00 1.47 0.00 95 1014.2
20260510160032 12 200 3.2 9.7 0.00 1.47 0.00 95 1014.2
20260510155515 12 0 3.2 8.0 0.00 1.47 0.00 95 1014.3
20260510155014 12 162 3.2 14.5 0.00 1.47 0.00 95 1014.4
20260510154534 12 221 4.8 14.5 0.00 1.47 0.00 95 1014.4
20260510154016 12 234 3.2 11.3 0.00 1.47 0.00 95 1014.4
20260510153515 12 208 4.8 11.3 0.00 1.47 0.00 95 1014.3
20260510153040 12 203 4.8 9.7 0.00 1.47 0.00 95 1014.2
20260510152519 12 217 1.6 9.7 0.00 1.47 0.00 96 1014.4
20260510152014 12 190 1.6 8.0 0.00 1.47 0.00 96 1014.4
20260510151534 12 243 3.2 9.7 0.00 1.47 0.00 96 1014.5
20260510151013 12 210 1.6 9.7 0.00 1.47 0.00 96 1014.4
20260510150513 12 156 1.6 11.3 0.00 1.47 0.00 96 1014.5
20260510150033 12 168 4.8 11.3 0.00 1.47 0.00 96 1014.5
20260510145518 12 195 3.2 6.4 0.00 1.47 0.00 96 1014.4
20260510145015 12 93 1.6 8.0 0.00 1.47 0.00 96 1014.4
20260510144543 11 205 1.6 8.0 0.00 1.47 0.00 96 1014.4
20260510144015 11 162 3.2 8.0 0.00 1.47 0.00 96 1014.3
20260510143516 11 213 1.6 6.4 0.00 1.47 0.00 96 1014.3
20260510143034 11 265 0.0 6.4 0.00 1.47 0.00 96 1014.2
20260510142517 11 254 0.0 8.0 0.00 1.47 0.00 96 1014.1
20260510142021 11 188 1.6 8.0 0.00 1.47 0.00 96 1014.0
20260510141535 11 0 1.6 6.4 0.00 1.47 0.00 96 1014.0
20260510141019 11 219 1.6 9.7 0.00 1.47 0.00 96 1013.8
20260510140516 11 234 3.2 9.7 0.00 1.47 0.00 96 1013.7
20260510140035 11 208 1.6 6.4 0.00 1.47 0.00 96 1013.8
20260510135517 11 191 3.2 8.0 0.00 1.47 0.00 96 1013.9
20260510135018 11 0 1.6 8.0 0.00 1.47 0.00 96 1013.9
20260510134544 11 144 3.2 9.7 0.00 1.47 0.00 96 1013.9
20260510134015 11 212 4.8 9.7 0.00 1.47 0.00 96 1013.9
20260510133517 11 212 1.6 8.0 0.00 1.47 0.00 96 1013.9
20260510133034 11 221 3.2 8.0 0.00 1.47 0.00 96 1013.9
20260510132518 11 196 1.6 8.0 0.00 1.47 0.00 96 1013.8
20260510132017 11 22 1.6 8.0 0.00 1.47 0.00 96 1013.7
20260510131534 11 79 1.6 4.8 0.00 1.47 0.00 96 1013.6
20260510131016 11 0 1.6 4.8 0.00 1.47 0.00 96 1013.6
20260510130516 11 162 1.6 4.8 0.00 1.47 0.00 96 1013.6
20260510130033 11 34 0.0 4.8 0.00 1.47 0.00 96 1013.6
20260510125515 11 265 1.6 6.4 0.00 1.47 0.00 96 1013.6
20260510125019 10 119 1.6 6.4 0.00 1.47 0.00 96 1013.6
20260510124539 10 80 1.6 4.8 0.00 1.47 0.00 96 1013.5
20260510124018 10 334 1.6 6.4 0.00 1.47 0.00 96 1013.4
20260510123518 10 178 1.6 6.4 0.00 1.47 0.00 96 1013.3
20260510123035 10 196 1.6 6.4 0.00 1.47 0.00 96 1013.2
20260510122520 10 221 1.6 6.4 0.00 1.47 0.00 96 1013.1
20260510122021 10 22 1.6 4.8 0.00 1.47 0.00 96 1013.1
20260510121534 10 153 0.0 6.4 0.00 1.47 0.00 96 1013.0
20260510121024 10 93 0.0 6.4 0.00 1.47 0.00 96 1013.0
20260510120522 10 162 1.6 4.8 0.00 1.47 0.00 96 1012.9
20260510120036 10 171 1.6 4.8 0.00 1.47 0.00 96 1012.9
20260510115519 10 153 1.6 8.0 0.00 1.47 0.00 96 1012.9
20260510115018 10 238 1.6 9.7 0.00 1.47 0.00 96 1013.0
20260510114534 10 193 3.2 9.7 0.00 1.47 0.00 96 1012.8
20260510114016 10 190 3.2 6.4 0.00 1.47 0.00 96 1012.7
20260510113518 10 137 1.6 4.8 0.00 1.47 0.00 96 1012.5
20260510113030 10 301 1.6 4.8 0.00 1.47 0.00 96 1012.4
20260510112527 10 78 1.6 4.8 0.00 1.47 0.00 96 1012.4
20260510112016 10 51 0.0 6.4 0.00 1.47 0.00 96 1012.3
20260510111537 10 153 1.6 6.4 0.00 1.47 0.00 96 1012.3
20260510111015 10 63 1.6 8.0 0.00 1.47 0.00 96 1012.3
20260510110519 10 9 1.6 8.0 0.00 1.47 0.00 96 1012.4
20260510110037 10 0 1.6 9.7 0.00 1.47 0.00 96 1012.3
20260510105516 10 140 3.2 9.7 0.00 1.47 0.00 96 1012.3
20260510105016 10 93 1.6 8.0 0.00 1.47 0.00 96 1012.4
20260510104530 10 72 1.6 8.0 0.00 1.47 0.00 96 1012.3
20260510104013 10 162 1.6 6.4 0.00 1.47 0.00 96 1012.4
20260510103513 10 111 1.6 4.8 0.00 1.47 0.00 96 1012.4
20260510103037 10 149 1.6 6.4 0.00 1.47 0.00 96 1012.4
20260510102517 10 0 0.0 6.4 0.00 1.47 0.00 96 1012.5
20260510102014 10 93 1.6 6.4 0.00 1.47 0.00 96 1012.3
20260510101531 10 19 1.6 8.0 0.00 1.47 0.00 96 1012.2
20260510101015 10 162 0.0 8.0 0.00 1.47 0.00 96 1012.2
20260510100513 10 193 1.6 8.0 0.00 1.47 0.00 96 1012.3
20260510100034 10 9 0.0 6.4 0.00 1.47 0.00 96 1012.3
20260510095514 10 137 1.6 6.4 0.00 1.47 0.00 95 1012.3
20260510095015 10 93 0.0 4.8 0.00 1.47 0.00 95 1012.3
20260510094536 10 0 1.6 4.8 0.00 1.47 0.00 95 1012.3
20260510094016 10 108 0.0 4.8 0.00 1.47 0.00 95 1012.3
20260510093515 10 93 0.0 3.2 0.00 1.47 0.00 96 1012.4
20260510093032 10 115 0.0 4.8 0.00 1.47 0.00 96 1012.4
20260510092513 10 137 1.6 4.8 0.00 1.47 0.00 96 1012.6
20260510092016 10 178 1.6 3.2 0.00 1.47 0.00 96 1012.7
20260510091531 10 93 0.0 3.2 0.00 1.47 0.00 96 1012.7
20260510091015 10 105 0.0 3.2 0.00 1.47 0.00 96 1012.5
20260510090515 10 9 0.0 6.4 0.00 1.47 0.00 96 1012.6
20260510090035 10 61 0.0 6.4 0.00 1.47 0.00 96 1012.6
20260510085515 10 105 1.6 6.4 0.00 1.47 0.00 96 1012.5
20260510085013 10 67 0.0 4.8 0.00 1.47 0.00 96 1012.7
20260510084534 10 0 1.6 6.4 0.00 1.47 0.00 96 1012.7
20260510084016 10 0 1.6 6.4 0.00 1.47 0.00 96 1012.7
20260510083518 10 113 0.0 8.0 0.00 1.47 0.00 96 1012.6
20260510083038 10 16 1.6 8.0 0.00 1.47 0.00 95 1012.7
20260510082517 10 93 3.2 11.3 0.00 1.47 0.00 95 1012.6
20260510082022 10 19 1.6 11.3 0.00 1.47 0.00 95 1012.5
20260510081531 10 329 3.2 11.3 0.00 1.47 0.00 95 1012.6
20260510081014 10 321 1.6 6.4 0.00 1.47 0.00 95 1012.5
20260510080519 10 309 3.2 6.4 0.00 1.47 0.00 95 1012.6
20260510080029 10 309 1.6 4.8 0.00 1.47 0.00 95 1011.9
20260510075520 10 123 0.0 4.8 0.00 1.47 0.00 95 1011.7
20260510075015 10 0 0.0 3.2 0.00 1.47 0.00 95 1011.6
20260510074532 10 0 0.0 3.2 0.00 1.47 0.00 95 1011.6
20260510074014 10 303 0.0 6.4 0.00 1.47 0.00 95 1011.7
20260510073518 10 196 1.6 6.4 0.00 1.47 0.00 95 1011.7
20260510073035 10 146 0.0 3.2 0.00 1.47 0.00 95 1011.7
20260510072514 10 0 0.0 4.8 0.00 1.47 0.00 95 1011.8
20260510072016 10 265 1.6 4.8 0.00 1.47 0.00 95 1011.8
20260510071543 10 0 0.0 3.2 0.00 1.47 0.00 95 1011.9
20260510071016 10 61 0.0 3.2 0.00 1.47 0.00 95 1011.8
20260510070514 10 291 0.0 3.2 0.00 1.47 0.00 95 1011.8
20260510070031 10 0 0.0 3.2 0.00 1.47 0.00 95 1011.7
20260510065516 10 298 0.0 4.8 0.00 1.47 0.00 95 1011.8
20260510065015 10 93 0.0 4.8 0.00 1.47 0.00 95 1011.8
20260510064530 10 309 1.6 3.2 0.00 1.47 0.00 95 1011.9
20260510064015 10 301 1.6 3.2 0.00 1.47 0.00 95 1011.9
20260510063513 10 0 0.0 4.8 0.00 1.47 0.00 95 1011.9
20260510063030 10 0 1.6 4.8 0.00 1.47 0.00 95 1011.9
20260510062515 10 316 1.6 4.8 0.00 1.47 0.00 95 1011.9
20260510062015 10 0 0.0 3.2 0.00 1.47 0.00 95 1011.8
20260510061530 10 0 0.0 4.8 0.00 1.47 0.00 95 1011.7
20260510061016 10 0 1.6 4.8 0.00 1.47 0.00 95 1011.6
20260510060516 10 282 0.0 6.4 0.00 1.47 0.00 95 1011.6
20260510060038 10 221 1.6 6.4 0.00 1.47 0.00 95 1011.6
20260510055515 10 0 0.0 4.8 0.00 1.52 0.00 95 1011.6
20260510055016 10 265 1.6 4.8 0.00 1.52 0.00 95 1011.6
20260510054531 10 80 1.6 4.8 0.00 1.52 0.00 95 1011.6
20260510054017 10 142 0.0 3.2 0.00 1.52 0.00 95 1011.6
20260510053515 10 265 0.0 3.2 0.00 1.52 0.00 95 1011.7
20260510053030 10 93 0.0 3.2 0.00 1.52 0.00 95 1011.7
20260510052516 10 0 1.6 4.8 0.00 1.52 0.00 95 1011.7
20260510052019 10 0 1.6 4.8 0.00 1.52 0.00 95 1011.6
20260510051541 10 93 1.6 4.8 0.00 1.52 0.00 95 1011.6
20260510051016 10 0 0.0 3.2 0.00 1.52 0.00 95 1011.7
20260510050518 10 0 0.0 3.2 0.00 1.52 0.00 95 1012.0
20260510050035 10 243 0.0 3.2 0.00 1.52 0.00 95 1011.9
20260510045517 10 0 0.0 3.2 0.00 1.52 0.00 95 1011.8
20260510045018 10 0 0.0 3.2 0.00 1.52 0.00 95 1011.7
20260510044539 10 341 0.0 3.2 0.00 1.52 0.00 95 1011.7
20260510044015 10 0 0.0 3.2 0.00 1.52 0.00 95 1011.7
20260510043516 10 0 1.6 3.2 0.00 1.52 0.00 95 1011.7
20260510043044 10 321 0.0 3.2 0.00 1.52 0.00 95 1011.7
20260510042516 10 51 0.0 3.2 0.00 1.52 0.00 95 1011.6
20260510042015 10 282 1.6 3.2 0.00 1.52 0.00 95 1011.7
20260510041544 10 265 0.0 4.8 0.00 1.52 0.00 95 1011.8
20260510041017 10 325 1.6 4.8 0.00 1.52 0.00 95 1011.8
20260510040515 10 291 1.6 4.8 0.00 1.52 0.00 95 1011.7
20260510040035 10 0 0.0 3.2 0.00 1.52 0.00 95 1011.5
20260510035519 10 115 1.6 3.2 0.00 1.52 1.52 95 1011.4
20260510035019 10 26 0.0 3.2 0.00 1.52 1.52 95 1011.4
20260510034530 10 325 0.0 4.8 0.00 1.52 1.52 95 1011.4
20260510034017 10 41 1.6 4.8 0.00 1.52 1.52 95 1011.3
20260510033514 10 55 1.6 4.8 0.00 1.52 1.52 95 1011.3
20260510033035 10 57 1.6 4.8 0.00 1.52 1.52 95 1011.3
20260510032519 10 316 1.6 4.8 0.00 1.52 1.52 95 1011.3
20260510032016 10 59 1.6 4.8 0.00 1.52 1.52 95 1011.4
20260510031534 10 46 1.6 4.8 0.00 1.52 1.52 94 1011.4
20260510031017 10 0 0.0 4.8 0.00 1.52 1.52 94 1011.4
20260510030517 10 100 1.6 4.8 0.00 1.52 1.52 94 1011.3
20260510030035 10 51 1.6 3.2 0.00 1.52 1.52 95 1011.4
20260510025516 11 309 0.0 3.2 0.00 1.52 1.52 95 1011.5
20260510025017 11 9 1.6 3.2 0.00 1.52 1.52 95 1011.5
20260510024539 11 17 0.0 3.2 0.00 1.52 1.52 95 1011.6
20260510024020 11 0 0.0 3.2 0.00 1.52 1.52 94 1011.7
20260510023518 11 76 0.0 4.8 0.00 1.52 1.52 94 1011.6
20260510023031 11 51 0.0 4.8 0.00 1.52 1.52 94 1011.6
20260510022517 11 51 0.0 4.8 0.00 1.52 1.52 94 1011.7
20260510022016 11 0 0.0 4.8 0.00 1.52 1.52 94 1011.7
20260510021533 11 321 1.6 4.8 0.00 1.52 1.52 94 1011.7
20260510021015 11 0 0.0 4.8 0.00 1.52 1.52 94 1011.7
20260510020515 11 30 1.6 4.8 0.00 1.52 1.52 94 1011.6
20260510020035 11 22 1.6 4.8 0.00 1.52 1.52 94 1011.6
20260510015518 11 34 0.0 6.4 0.00 1.52 1.52 94 1011.6
20260510015017 11 0 1.6 6.4 0.00 1.52 1.52 94 1011.6
20260510014535 11 313 0.0 4.8 0.00 1.52 1.52 94 1011.5
20260510014017 11 229 0.0 6.4 0.00 1.52 1.52 94 1011.4
20260510013518 11 238 1.6 6.4 0.00 1.52 1.52 94 1011.4
20260510013034 11 162 0.0 4.8 0.00 1.52 1.52 94 1011.4
20260510012517 11 0 0.0 4.8 0.00 1.52 1.52 94 1011.2
20260510012017 11 205 1.6 4.8 0.00 1.52 1.52 94 1011.1
20260510011538 11 137 1.6 3.2 0.00 1.52 1.52 94 1011.2
20260510011018 11 196 1.6 3.2 0.00 1.52 1.52 94 1011.1
20260510010518 11 325 0.0 4.8 0.00 1.52 1.52 94 1011.0
20260510010046 11 93 0.0 4.8 0.00 1.52 1.52 94 1011.0
20260510005518 11 85 0.0 3.2 0.00 1.52 1.52 94 1011.0
20260510005020 11 0 0.0 4.8 0.00 1.52 1.52 94 1011.0
20260510004532 11 0 1.6 4.8 0.00 1.52 1.52 94 1011.0
20260510004020 11 76 0.0 4.8 0.00 1.52 1.52 94 1010.9
20260510003518 11 0 0.0 4.8 0.00 1.52 1.52 94 1011.0
20260510003036 11 298 1.6 4.8 0.00 1.52 1.52 94 1011.0
20260510002517 11 330 0.0 4.8 0.00 1.52 1.52 94 1010.9
20260510002016 11 72 0.0 4.8 0.00 1.52 1.52 94 1011.0
20260510001535 11 0 0.0 4.8 0.00 1.52 1.52 94 1011.0
20260510001016 11 131 1.6 4.8 0.00 1.52 1.52 94 1010.9
20260510000516 11 0 0.0 3.2 0.00 1.52 1.52 93 1010.8
20260510000038 11 108 0.0 3.2 0.00 1.52 1.52 93 1010.9
20260509235518 11 93 0.0 4.8 0.00 1.52 1.52 94 1010.9
20260509235018 11 119 1.6 4.8 0.00 1.52 1.52 93 1010.8
20260509234553 11 119 1.6 6.4 0.00 1.52 1.52 93 1010.8
20260509234016 12 80 0.0 6.4 0.03 1.52 1.52 93 1010.9
20260509233517 12 83 0.0 3.2 0.03 1.52 1.52 94 1010.8
20260509233036 12 157 0.0 4.8 0.03 1.52 1.52 94 1010.8
20260509232518 12 126 1.6 4.8 0.05 1.52 1.52 94 1010.9
20260509232016 12 83 1.6 4.8 0.13 1.52 1.52 93 1011.1
20260509231534 12 93 0.0 6.4 0.15 1.52 1.52 94 1011.2
20260509231015 12 0 0.0 6.4 0.18 1.52 1.52 93 1011.2
20260509230516 12 61 1.6 6.4 0.20 1.52 1.52 93 1011.2
20260509230032 12 265 1.6 11.3 0.23 1.52 1.52 93 1011.1
20260509225519 12 9 1.6 11.3 0.25 1.52 1.52 93 1011.0
20260509225016 12 140 3.2 11.3 0.30 1.52 1.52 93 1010.9
20260509224535 12 98 3.2 11.3 0.41 1.52 1.52 93 1011.1
20260509224018 12 76 3.2 11.3 0.41 1.47 1.47 93 1011.1
20260509223519 12 68 1.6 4.8 0.43 1.47 1.47 93 1011.2
20260509223034 12 9 1.6 6.4 0.43 1.47 1.47 93 1011.3
20260509222515 12 243 1.6 6.4 0.43 1.47 1.47 93 1011.3
20260509222017 11 128 1.6 6.4 0.36 1.40 1.40 93 1011.4
20260509221559 12 123 1.6 6.4 0.33 1.37 1.37 93 1011.4
20260509221018 12 0 1.6 6.4 0.30 1.32 1.32 93 1011.4